Location: Fontevrault
(47.1823°N, 0.0493°E)
Time: 03:15:26
(UTC+00:00)

Uosat 12 SS-18 rocket - Pass Details

Date: 26 October 2021
Orbit: 579 x 1405 km, 64.6° (Epoch: 01 December)

Event Time Altitude Azimuth Distance (km) Brightness Sun altitude
Rises 17:58:27 0° 277° (W) 3,272 9.6 -11.8°
Reaches altitude 10° 18:01:18 10° 294° (WNW) 2,479 8.1 -12.2°
Maximum altitude 18:05:40 21° 343° (NNW) 2,000 6.8 -13.0°
Drops below altitude 10° 18:10:42 10° 30° (NNE) 2,926 7.2 -13.8°
Enters shadow 18:12:40 - 40° (NE) 3,501 7.5 -14.2°
